Orbital Elements at Epoch 2459200.5 (2020-Dec-17.0) TDB
Reference: JPL 18 (heliocentric ecliptic J2000)
Element | Value | Uncertainty (1-sigma) | Units |
e | .1481527931900364 | 3.8579e-08 | |
a | 2.55045200432697 | 1.5713e-08 | au |
q | 2.172595415988802 | 1.0029e-07 | au |
i | 6.988635879883263 | 4.5063e-06 | deg |
node | 63.49597057804308 | 5.0314e-05 | deg |
peri | 192.8460625970777 | 5.5847e-05 | deg |
M | 353.3730240813146 | 2.8293e-05 | deg |
tp | 2459227.886532691720 (2021-Jan-13.38653269) | 0.00011705 | TDB |
period | 1487.730133622568 4.07 | 1.3749e-05 3.764e-08 | d yr |
n | .2419793696881122 | 2.2363e-09 | deg/d |
Q | 2.928308592665137 | 1.8041e-08 | au |
|
| | Orbit Determination Parameters
Additional Information
|